Regional Weather Roundup
Issued by NWS

Home | Current Version | Previous Version | Graphics & Text | Print | Product List | Glossary On
Versions: 1 2 3 4 5 6 7 8 9 10 11 12 13 14 15 16 17 18 19 20 21 22 23 24 25 26 27 28 29 30 31 32 33 34 35 36 37 38 39 40 41 42 43 44 45 46 47 48 49 50
000
ASUS45 KCYS 241610
RWRWY

WYOMING REGIONAL WEATHER ROUNDUP
NATIONAL WEATHER SERVICE CHEYENNE WY
1000 AM MDT THU JUL 24 2014

NOTE:  "FAIR" INDICATES FEW OR NO CLOUDS BELOW 12,000 FEET
WITH NO SIGNIFICANT WEATHER AND/OR OBSTRUCTIONS TO VISIBILITY.

WYZ001-241700-
YELLOWSTONE NATIONAL PARK

CITY           SKY/WX    TMP DP  RH WIND       PRES   REMARKS
LK YELLOWSTONE   N/A     68  30  24 SW9G18    30.25S
W YELLOWSTONE  NOT AVBL

$$
WYZ002>013-054>058-071-098>099-241700-
NORTHERN WYOMING

CITY           SKY/WX    TMP DP  RH WIND       PRES   REMARKS
JACKSON        NOT AVBL
CODY           NOT AVBL
GREYBULL       SUNNY     88  43  20 S7        29.87F
WORLAND        SUNNY     93  42  17 SW10      29.89F
SHERIDAN       SUNNY     87  56  34 N13       29.85S
BUFFALO        SUNNY     94  39  14 SW16G26   29.94F HX  90
GILLETTE       SUNNY     91  48  22 SW16      29.88F
HULETT         FAIR      86  52  30 MISG      29.89
NEWCASTLE      FAIR      86  45  23 MISG      29.93

$$
WYZ014>020-022>026-101>103-241700-
CENTRAL WYOMING

CITY           SKY/WX    TMP DP  RH WIND       PRES   REMARKS
BIG PINEY      MOSUNNY   71  46  40 S5        30.24R
PINEDALE       SUNNY     72  41  33 SE7       30.26R
DUBOIS         FAIR      73  36  25 W24G31    30.18S
LANDER         SUNNY     87  37  17 SW30G38   30.07S
RIVERTON       MOSUNNY   88  37  16 SW30      30.04R
CASPER         SUNNY     88  40  18 SW26G37   30.05S
DOUGLAS        SUNNY     92  43  18 W24G31    30.01F

$$
WYZ021-027>030-104>119-241700-
SOUTHERN WYOMING

CITY           SKY/WX    TMP DP  RH WIND       PRES   REMARKS
EVANSTON       MOSUNNY   79  40  24 SW25G36   30.24F
KEMMERER       PTSUNNY  N/A N/A N/A SW16      30.26F
FORT BRIDGER   FAIR      80  38  22 SW20G26   30.27S
ROCK SPRINGS   PTSUNNY   79  42  26 SW23G32   30.25S
DIXON          FAIR      80  41  25 SW16G26   30.31R
RAWLINS        SUNNY     83  39  21 SW29G37   30.24S
SARATOGA       FAIR      82  41  23 SW25G32   30.30S
LARAMIE        MOSUNNY   79  43  27 SW24G32   30.28S
CHEYENNE       MOSUNNY   87  44  22 W24G36    30.16F
TORRINGTON     MOSUNNY   78  59  51 SE3       29.98F
PINE BLUFFS    FAIR      86  50  28 S10       30.10S

$$



USA.gov is the U.S. government's official web portal to all federal, state and local government web resources and services.